Main page
METAR-TAF:

METAR-TAF

Airports :

Pontianak, Indonesia

Supadio International Airport

latitude: 00-09S, longitude: 109-24E, elevation: 3 m

Current weather observation

The report was made 16 minutes ago, at 09:30 UTC
Calm wind
Temperature 28°C
Humidity 84%
Pressure 1006 hPa
Visibility: 8000 m
Broken clouds at a height of 1200 ft

METAR: WIOO 200930Z 00000KT 8000 BKN012 28/25 Q1006 NOSIG

Time: 16:46 (09:46 UTC)


TAF: missing

Weather observations and forecasts of more than 4000 airports (METAR and TAF reports).

The available stations are represented by yellow and red dots on the map.

Hover mouse over dot to see the name of the station.

Then click to see weather observations and forecasts.

To change the map : click on the green buttons with a black cross to zoom in, on the green button with a dash to zoom out, or on the green arrows for adjacent maps.


METAR-TAF: